Home > Weather > Paterson > Past weeks

Flag for USA Weather for the Past 2 Weeks in Paterson, New Jersey, USA

Now
52 °F

Light rain. Fog.


Feels Like: 50 °F
Forecast: 52 / 55 °F
Wind: 7 mph from East

Location: Essex County Airport

Current Time: May 3, 2016 at 10:48:04 AM

Latest Report: May 3, 2016 at 10:00 AM


Visibility: 1 mi

Pressure: 29.86 "Hg

Humidity: 93%

Dew Point: 50 °F

Location of PatersonLocation

Historic Weather in Paterson — Graph

°F

Paterson Temperature Yesterday

Maximum temperature yesterday: 60 °F (at 5:53 PM)
Minimum temperature yesterday: 44 °F (at 12:53 AM)
Average temperature yesterday: 50 °F

High & Low Weather Summary for the Past Weeks

 TemperatureHumidityPressure
High80 °F (Apr 18, 2:53 PM)93% (Apr 26, 6:53 AM)30.29 "Hg (Apr 26, 6:53 AM)
Low40 °F (Apr 24, 5:53 AM)13% (Apr 20, 3:53 PM)29.64 "Hg (Apr 26, 2:53 PM)
Average57 °F56%30.03 "Hg
* Reported Apr 18 8:53 AM — May 3 8:53 AM, Paterson, Weather by CustomWeather, © 2016

Note: Actual official high and low records may vary slightly from our data, if they occured in-between our weather recording intervals... More about our weather records

Advertising

Paterson Weather History for the Previous 24 Hours

Scroll right to see more
 ConditionsComfort  
Time TempWeatherWind HumidityBarometerVisibility
8:53 AM
Tue, May 3
52 °FLight rain. Fog.8 mph93%29.88 "Hg3 mi
7:53 AM52 °FLight rain. Mostly cloudy.7 mph89%29.89 "Hg10 mi
6:53 AM53 °FLight rain. Mostly cloudy.9 mph89%29.89 "Hg7 mi
5:53 AM53 °FLight rain. Fog.9 mph89%29.88 "Hg6 mi
4:53 AM54 °FLight rain. Fog.6 mph90%29.87 "Hg4 mi
3:53 AM54 °FRain. Fog.6 mph93%29.87 "Hg2 mi
2:53 AM54 °FLight rain. Fog.5 mph93%29.89 "Hg4 mi
1:53 AM54 °FLight rain. Fog.6 mph93%29.91 "Hg4 mi
12:53 AM54 °FLight rain. Fog.No wind93%29.95 "Hg4 mi
11:53 PM
Mon, May 2
54 °FLight rain. Fog.3 mph90%29.95 "Hg6 mi
10:53 PM53 °FPassing clouds.No wind89%29.96 "Hg7 mi
9:53 PM53 °FFog.No wind89%29.94 "Hg4 mi
8:53 PM53 °FSunny.No wind89%29.93 "Hg8 mi
7:53 PM58 °FSunny.No wind81%29.94 "Hg10 mi
6:53 PM60 °FPassing clouds.3 mph75%29.91 "Hg10 mi
5:53 PM60 °FPassing clouds.No wind75%29.91 "Hg9 mi
4:53 PM57 °FOvercast.3 mph78%29.90 "Hg6 mi
3:53 PM55 °FLow clouds.No wind83%29.91 "Hg5 mi
2:53 PM53 °FFog.No wind86%29.94 "Hg2 mi
1:53 PM52 °FFog.No wind89%29.95 "Hg2 mi
12:53 PM51 °FFog.3 mph89%29.97 "Hg2 mi
11:53 AM50 °FFog.3 mph89%29.98 "Hg1 mi
10:53 AM48 °FLight rain. Fog.No wind93%29.99 "Hg1 mi
Weather by CustomWeather, © 2016

See weather overviewHow to use our weather pages